Regional Weather Roundup
Issued by NWS

Home | Current Version | Previous Version | Text Only | Print | Product List | Glossary Off
Versions: 1 2 3 4 5 6 7 8 9 10 11 12 13 14 15 16 17 18 19 20 21 22 23 24 25 26 27 28 29 30 31 32 33 34 35 36 37 38 39 40 41 42 43 44 45 46 47 48 49 50

000
ASUS45 KBOU 180007
RWRCO

WEATHER ROUNDUP FOR COLORADO
NATIONAL WEATHER SERVICE DENVER/BOULDER CO
600 PM MDT WED SEP 17 2014

NOTE: "FAIR" INDICATES FEW OR NO CLOUDS BELOW 12000 FEET WITH NO
SIGNIFICANT WEATHER AND/OR OBSTRUCTIONS TO VISIBILITY.

COZ001>005-013-030-031-180100-
...NORTHWEST COLORADO...

CITY           SKY/WX    TMP DP  RH WIND       PRES   REMARKS
CRAIG          MOSUNNY   81  38  21 W6        30.07F
HAYDEN         MOSUNNY   81  30  16 NW5       30.10S
MEEKER         MOSUNNY   80  39  23 S7        30.07F
MOUNT WERNER   NOT AVBL
STEAMBOAT SPGS PTSUNNY   78  36  21 CALM      30.12S
WALDEN         PTSUNNY   66  37  34 E5        30.25F
$$

COZ006>008-011-180100-
...WEST CENTRAL VALLEYS...

CITY           SKY/WX    TMP DP  RH WIND       PRES   REMARKS
GRAND JUNCTION SUNNY     86  37  17 W7        29.94F
MONTROSE       SUNNY     84  38  19 N7        30.03S
EAGLE          NOT AVBL
RIFLE          SUNNY     85  35  16 CALM      29.99F
DELTA          SUNNY     90  33  13 W13G18    29.96F
NUCLA          SUNNY     77  41  27 S7        30.09F
$$

COZ017>023-064>068-180100-
...SOUTHWEST COLORADO...

CITY           SKY/WX    TMP DP  RH WIND       PRES   REMARKS
DURANGO        LGT RAIN  58  50  75 NE20      30.19F
CORTEZ         MOSUNNY   63  55  75 W10       30.12F
PAGOSA SPRINGS CLOUDY    58  47  69 W8        30.23S
TELLURIDE      NOT AVBL
WOLF CREEK PAS CLOUDY    46  32  57 CALM      30.50S
$$

COZ009-010-012-014-032>034-037-058>063-180100-
...CENTRAL COLORADO...

CITY           SKY/WX    TMP DP  RH WIND       PRES   REMARKS
ASPEN          MOSUNNY   77  32  19 NW3       30.17S
BUENA VISTA    PTSUNNY   76  26  16 NE10      30.19S
COPPER MTN     MOSUNNY   59  23  25 W9        30.54R
BERTHOUD PASS  FAIR      50  48  93 NW8       30.59R
COTTONWOOD PAS PTSUNNY   68  23  18 S5        30.35S
GUNNISON       PTSUNNY   75  34  22 NW7       30.18S
KREMMLING      MOSUNNY   77  19  11 NW9       30.17S
LEADVILLE      PTSUNNY   66  25  21 S10       30.34S
MONARCH PASS   CLOUDY    54  32  43 N7        30.61S
SALIDA         PTSUNNY   78  33  19 SE15G22   30.24R
SUNLIGHT       SUNNY     63  36  36 CALM      30.45F
WILKERSON PASS NOT AVBL
$$

COZ069>075-180100-
...SAN LUIS VALLEY/SANGRE DE CRISTO MOUNTAINS...

CITY           SKY/WX    TMP DP  RH WIND       PRES   REMARKS
ALAMOSA        CLOUDY    70  38  31 NE7       30.17F
LA VETA PASS   NOT AVBL
SAGUACHE       PTSUNNY   70  37  30 S12G18    30.21S
$$

COZ035-036-038>040-180100-
...NORTHERN COLORADO FRONT RANGE...

CITY           SKY/WX    TMP DP  RH WIND       PRES   REMARKS
DENVER INTL AP PTSUNNY   81  38  21 NE7       30.02R
DMNS CITY PARK   N/A     83  33  16 NE12      30.00S
AURORA         PTSUNNY   80  37  21 E6        30.04R
FRONT RANGE AP PTSUNNY   84  39  20 CALM      30.03
ERIE MUNI ARPT MOSUNNY   85  34  15 NE5       30.00R
BOULDER MUN AP MOSUNNY   82  43  24 N9        30.02R
CENTENNIAL     MOSUNNY   83  34  17 E8        30.05R
BROOMFIELD     PTSUNNY   86  32  14 NE9       30.04R
FORT COLLINS   PTSUNNY   79  45  29 SW13G24   30.04R
LONGMONT       PTSUNNY   81  40  23 N21G26    30.04R
$$

COZ041-046-047-076>085-087-088-180100-
...PIKES PEAK/PALMER DIVIDE AND SOUTHERN FOOTHILLS...

CITY           SKY/WX    TMP DP  RH WIND       PRES   REMARKS
COLO. SPRINGS  PTSUNNY   79  37  22 SE5       30.09S
A. F. ACADEMY  PTSUNNY   78  38  24 S5        30.11S
ELLICOTT       NOT AVBL
FALCON         PTSUNNY   74  41  30 CALM      30.15S
FORT CARSON    MOSUNNY   79  43  28 NE3       30.06R
LIMON          MOSUNNY   83  37  19 S3        30.03S
MONUMENT HILL  MOSUNNY   70  36  28 S5        30.15S
TRINIDAD       MOSUNNY   82  37  20 SE15      30.04R
$$

COZ042>045-048>051-090-091-180100-
...NORTHEAST COLORADO...

CITY           SKY/WX    TMP DP  RH WIND       PRES   REMARKS
GREELEY ARPT   PTSUNNY   79  41  25 N13       30.00R
AKRON          LGT RAIN  76  40  27 SW22G81   30.04R SQUALL
BURLINGTON     PTCLDY    85  44  23 SW5       29.95S
WRAY           PTCLDY    84  47  27 E5        29.90F
STERLING       PTSUNNY   88  50  27 SW10      29.93R
HOLYOKE        PTCLDY    84  50  30 E7        29.92S
FORT MORGAN    PTSUNNY   74  46  36 NE7       29.98R
$$

COZ086-089-092>099-180100-
...SOUTHEAST COLORADO...

CITY           SKY/WX    TMP DP  RH WIND       PRES   REMARKS
PUEBLO         PTSUNNY   89  37  16 NE13      29.94S
LA JUNTA       MOSUNNY   91  33  12 CALM      29.92S
LAMAR          PTSUNNY   91  39  16 S10       29.88S
SPRINGFIELD      N/A     79  59  50 S10       29.97S
$$


USA.gov is the U.S. government's official web portal to all federal, state and local government web resources and services.